Hobart, OK

7:01 PM CDT on July 21, 2017 (GMT -0500)
Hobart Municipal

Weather History for KHBR - March, 2014

Change the Weather History Date:

Thursday, March 13, 2014

  Actual Average Record
Temperature  
Mean Temperature 46 °F -  
Max Temperature 66 °F 57 °F 87 °F (2002)
Min Temperature 25 °F 35 °F 25 °F (2014)
Degree Days  
Heating Degree Days 20    
Moisture  
Dew Point 19 °F    
Average Humidity 39    
Maximum Humidity 75    
Minimum Humidity 15    
Precipitation  
Precipitation 0.00 in - - ()
Sea Level Pressure  
Sea Level Pressure 30.14 in    
Wind  
Wind Speed 10 mph (SW)    
Max Wind Speed 26 mph    
Max Gust Speed 31 mph    
Visibility 10 miles    
Events      
Averages and records for this station are not official NWS values.
T = Trace of Precipitation, MM = Missing Value Source: NWS Daily Summary

Daily Weather History Graph

Daily Weather History Graph

Search for Another Location

Airport or City:

Trip Planner

Search our weather history database for the weather conditions in past years. The results will help you decide how hot, cold, wet, or windy it might be!

Date:

Astronomy

Mar. 13, 2014 Rise Set
Actual Time 7:49 AM CDT 7:42 PM CDT
Civil Twilight 7:24 AM CDT 8:07 PM CDT
Nautical Twilight 6:55 AM CDT 8:36 PM CDT
Astronomical Twilight 6:25 AM CDT 9:06 PM CDT
Moon 5:14 PM CDT (3/13) 5:52 AM CDT (3/13)
Length of Visible Light 12h 43m
Length of Day
11h 52m
Waxing Gibbous, 91% of the Moon is Illuminated
Mar 13
Waxing Gibbous
Mar 16
Full
Mar 23
Last Quarter
Mar 30
New
Apr 7
First Quarter

Hourly Weather History & Observations

Time (CDT) Temp. Windchill Dew Point Humidity Pressure Visibility Wind Dir Wind Speed Gust Speed Precip Events Conditions
12:53 AM 36.0 °F 32.1 °F 19.0 °F 50% 30.28 in 10.0 mi WSW 4.6 mph - N/A   Clear
1:53 AM 33.1 °F 27.7 °F 19.0 °F 56% 30.27 in 10.0 mi West 5.8 mph - N/A   Clear
2:53 AM 30.0 °F 24.1 °F 18.0 °F 61% 30.26 in 10.0 mi WSW 5.8 mph - N/A   Clear
3:53 AM 27.0 °F 19.5 °F 19.0 °F 72% 30.25 in 10.0 mi West 6.9 mph - N/A   Clear
4:53 AM 26.1 °F 19.4 °F 19.0 °F 75% 30.24 in 10.0 mi West 5.8 mph - N/A   Clear
5:53 AM 25.0 °F 18.1 °F 18.0 °F 75% 30.25 in 10.0 mi West 5.8 mph - N/A   Clear
6:53 AM 26.1 °F 20.5 °F 18.0 °F 71% 30.25 in 10.0 mi WNW 4.6 mph - N/A   Clear
7:53 AM 26.1 °F 19.4 °F 18.0 °F 71% 30.26 in 10.0 mi West 5.8 mph - N/A   Clear
8:53 AM 34.0 °F 28.0 °F 21.0 °F 59% 30.26 in 10.0 mi SW 6.9 mph - N/A   Clear
9:53 AM 43.0 °F 38.2 °F 23.0 °F 45% 30.27 in 10.0 mi SW 8.1 mph - N/A   Clear
10:53 AM 53.1 °F - 21.9 °F 30% 30.25 in 10.0 mi WSW 11.5 mph - N/A   Clear
11:53 AM 60.1 °F - 16.0 °F 18% 30.22 in 10.0 mi SW 16.1 mph - N/A   Clear
12:53 PM 62.1 °F - 18.0 °F 18% 30.19 in 10.0 mi SW 18.4 mph - N/A   Clear
1:53 PM 64.9 °F - 18.0 °F 16% 30.16 in 10.0 mi SW 19.6 mph 26.5 mph N/A   Clear
2:53 PM 66.9 °F - 18.0 °F 15% 30.10 in 10.0 mi SSW 21.9 mph 28.8 mph N/A   Clear
3:53 PM 64.9 °F - 17.1 °F 16% 30.07 in 10.0 mi SSW 20.7 mph 28.8 mph N/A   Clear
4:53 PM 66.0 °F - 17.1 °F 15% 30.04 in 10.0 mi SSW 26.5 mph 31.1 mph N/A   Clear
5:53 PM 64.9 °F - 17.1 °F 16% 30.00 in 10.0 mi SW 20.7 mph - N/A   Clear
6:53 PM 63.0 °F - 18.0 °F 18% 29.99 in 10.0 mi SSW 16.1 mph - N/A   Clear
7:53 PM 54.0 °F - 19.9 °F 26% 29.98 in 10.0 mi South 11.5 mph - N/A   Clear
8:53 PM 48.0 °F - 19.9 °F 33% 29.97 in 10.0 mi South 10.4 mph - N/A   Clear
9:53 PM 48.0 °F - 19.0 °F 32% 29.95 in 10.0 mi South 13.8 mph - N/A   Clear
10:53 PM 48.9 °F - 19.0 °F 31% 29.94 in 10.0 mi South 10.4 mph - N/A   Clear
11:53 PM 52.0 °F - 18.0 °F 26% 29.92 in 10.0 mi SSW 16.1 mph - N/A   Clear